Regional Weather Roundup
Issued by NWS Cleveland, OH

Home | Current Version | Previous Version | Graphics & Text | Print | Product List | Glossary On
Versions: 1 2 3 4 5 6 7 8 9 10 11 12 13 14 15 16 17 18 19 20 21 22 23 24 25 26 27 28 29 30 31 32 33 34 35 36 37 38 39 40 41 42 43 44 45 46 47 48 49 50
000
ASUS41 KCLE 281010
RWRCLE
OHIO REGIONAL WEATHER ROUNDUP
NATIONAL WEATHER SERVICE WILMINGTON, OH
600 AM EDT FRI JUL 28 2017

NOTE: "FAIR" INDICATES FEW OR NO CLOUDS BELOW 12,000 FEET WITH NO
SIGNIFICANT WEATHER AND/OR OBSTRUCTIONS TO VISIBILITY.

OHZ001>008-015>018-024>027-034-035-043-044-281100-
   NORTHWEST OHIO

CITY           SKY/WX    TMP DP  RH WIND       PRES   REMARKS
DEFIANCE       FAIR      64  59  83 NE6       29.92R
FINDLAY        FAIR      68  62  81 N9        29.89S
TOLEDO EXPRESS FAIR      63  60  90 N7        29.91S
TOLEDO EXEC    FAIR      66  62  87 N6        29.91S
LIMA           CLOUDY    65  64  97 NE7       29.90R
$$

OHZ009>014-019>023-028>033-038-089-281100-
   NORTHEAST OHIO

CITY           SKY/WX    TMP DP  RH WIND       PRES   REMARKS
CLE-HOPKINS    MOCLDY    72  67  84 CALM      29.89S
CLE-LAKEFRONT  FAIR      71  65  81 CALM      29.86S
CUY CO. ARPT   NOT AVBL
LORAIN-ELYRIA  CLOUDY    64  60  87 N3        29.89S
ASHTABULA      FAIR      63  63 100 NE3       29.89F
AKRON-CANTON   MOCLDY    67  63  87 N9        29.87S
WOOSTER        CLOUDY    67  66  97 N7        29.89R
MANSFIELD      FAIR      66  66 100 N6        29.89S FOG
YOUNGSTOWN     CLOUDY    66  63  90 NE8       29.87S
$$

OHZ042-051>053-060>062-070>072-077>081-281100-
  SOUTHWEST OHIO

CITY           SKY/WX    TMP DP  RH WIND       PRES   REMARKS
CINC-COVINGTON LGT RAIN  74  74 100 CALM      29.84S FOG
CINC-LUNKEN    LGT RAIN  74  74 100 NE5       29.84
HAMILTON       CLOUDY    73  72  96 E5        29.85S
DAYTON         MOCLDY    69  68  96 NE9       29.88S FOG
WRIGHT-PAT AFB MOCLDY    71  71 100 N7        29.86S FOG
DAYTON GENERAL LGT RAIN  71  69  93 NE6       29.85F
WILMINGTON     CLOUDY    69  69 100 NE7       29.86S FOG
$$

OHZ036-037-039>041-045>050-054>059-063>069-073>076-082>088-281100-
  CENTRAL AND SOUTHEAST OHIO

CITY           SKY/WX    TMP DP  RH WIND       PRES   REMARKS
COLUMBUS       MOCLDY    70  70 100 N7        29.85S
OSU AIRPORT    FAIR      69  69 100 N8        29.86S
BOLTON FIELD   CLOUDY    69  69 100 CALM      29.87S FOG
RICKENBACK AFB CLOUDY    69  69 100 N3        29.85R
NEWARK         CLOUDY    70  68  93 NE3       29.85S FOG
MARION         CLOUDY    66  64  93 N6        29.89R FOG
LANCASTER      CLOUDY    69  69 100 N3        29.85S FOG
ZANESVILLE     CLOUDY    71  68  90 N5        29.85S
NEW PHILLY     CLOUDY    70  69  97 CALM      29.87R FOG
$$




USA.gov is the U.S. government's official web portal to all federal, state and local government web resources and services.